Regional Weather Roundup
Issued by NWS Grand Forks, ND

Home | Current Version | Previous Version | Graphics & Text | Print | Product List | Glossary On
Versions: 1 2 3 4 5 6 7 8 9 10 11 12 13 14 15 16 17 18 19 20 21 22 23 24 25 26 27 28 29 30 31 32 33 34 35 36 37 38 39 40 41 42 43 44 45 46 47 48 49 50
000
ASUS43 KFGF 061510
RWRFGF
PRAIRIE TO PINES  WEATHER ROUNDUP
NATIONAL WEATHER SERVICE EASTERN NORTH DAKOTA/GRAND FORKS ND
900 AM CST FRI MAR 06 2015

 **SATELLITE DATA USED TO AUGMENT SKY COVER AT AUTOMATED STATIONS**
 *****  WEATHER ACROSS EASTERN NORTH DAKOTA  *****

CITY           SKY/WX    TMP DP  RH WIND       PRES   REMARKS
GRAND FORKS    SUNNY     19  11  70 W10       30.06R WCI   7
GRAND FRKS AFB SUNNY     21  10  63 NW10      30.05R WCI  10
GRAND FRKS NWS   N/A     19 N/A N/A NW3         N/A
DEVILS LAKE    SUNNY     14   9  79 W10       30.06R WCI   1
FARGO          SUNNY     20  11  68 W10       30.09R WCI   9
WAHPETON ARPT  SUNNY     19  12  73 NW8       30.09R WCI   9
$$

 ***** WEATHER ACROSS CENTRAL AND WESTERN NORTH DAKOTA  *****

CITY           SKY/WX    TMP DP  RH WIND       PRES   REMARKS
BISMARCK       MOSUNNY   22  15  75 CALM      30.13R
MINOT          PTSUNNY   20  12  71 SW9       30.05S WCI   9
JAMESTOWN      SUNNY     22  13  68 NW7       30.07R WCI  13
MINOT AFB      PTSUNNY   20  16  84 SW5       30.04S WCI  14
GARRISON         N/A     19  13  77 CALM      30.08R
WILLISTON      CLOUDY    22  17  81 S3        30.06S
DICKINSON      CLOUDY    28  19  69 SW3       30.05R
HETTINGER      CLOUDY    27  17  66 NW3       30.09R
$$

 *****  OTHER AIRPORT OBSERVATIONS IN OUR AREA  *****

CITY           SKY/WX    TMP DP  RH WIND       PRES   REMARKS
WALHALLA         N/A     18  10  73 W9        30.04R WCI   6
GRAFTON AIRPOR NOT AVBL
VALLEY CITY AR FLURRIES  19  16  86 NW13      30.07R WCI   7
CANDO          FAIR      14   9  79 W8        30.05R WCI   3
CAVALIER APRT  FAIR      19  10  68 W10       30.03S WCI   8
GWINNER        SUNNY     25  16  68 NW10      30.10R WCI  15
SHEYENNE NWR     N/A     20  11  67 NW7       29.95S WCI  11
ROLLA          FAIR      19  12  73 SW8       30.01S WCI   9
 ***** THE ABOVE OBSERVATIONS ARE NON NWS ARE NOT QUALITY
       CONTROLLED AND MAY MIS-REPORT RAIN FOR SNOW...
$$

  *****  WEATHER ACROSS NORTHERN MINNESOTA  *****

CITY           SKY/WX    TMP DP  RH WIND       PRES   REMARKS
FLAG ISLAND    SUNNY     12   7  79 NW8       29.94R WCI   1
WARROAD        SUNNY     12   7  79 W7        29.97R WCI   2
ROSEAU         SUNNY     12   7  79 W9        29.98R WCI   0
HALLOCK        NOT AVBL
THF RVR FALLS  SUNNY     16   9  73 W9        30.02R WCI   4
BAUDETTE       SUNNY     15   7  70 NW10      29.95R WCI   2
WASKISH        SUNNY     14   9  79 CALM      29.97S
CROOKSTON      SUNNY     18  12  79 NW12      30.06R WCI   5
STEPHEN NDAWN    N/A     12   9  85 W7          N/A  WCI   2
GREENBUSH NDAW   N/A     14   9  79 W8          N/A  WCI   3
$$
  *****  WEATHER ACROSS CENTRAL AND WEST MINNESOTA  *****

CITY           SKY/WX    TMP DP  RH WIND       PRES   REMARKS
FOSSTON        SUNNY     12   7  79 CALM      30.02R
BEMIDJI        SUNNY     16   8  71 W7        29.97S WCI   6
PARK RAPIDS    SUNNY     16   8  71 NW8       29.98R WCI   5
ELBOW LAKE     FAIR      17  11  78 NW13      30.05R WCI   3
WADENA         SUNNY     16   9  73 W7        30.00R WCI   6
DETROIT LAKES  SUNNY     18  12  79 NW7       30.04R WCI   8
MOORHEAD       SUNNY     19  14  79 NW10      30.09R WCI   8
FERGUS FALLS   SUNNY     16   9  73 NW12      30.10R WCI   3
MORRIS MN      SUNNY     21  14  73 NW14G21   30.05R WCI   8
STAPLES        SUNNY     16   9  73 W8        30.00R WCI   5
$$
  *****  WEATHER ELSEWHERE ACROSS MINNESOTA  *****

CITY           SKY/WX    TMP DP  RH WIND       PRES   REMARKS
DULUTH         SUNNY     15   5  64 W14       29.93S WCI   0
INTRNTL FALLS  SUNNY     15   5  64 NW10      29.92R WCI   2
ELY            SUNNY     16   5  62 W13       29.89S WCI   2
CLOQUET        SUNNY     14   5  67 SW10      29.96S WCI   1
WHEATON        SUNNY     19  12  73 NW12      30.11R WCI   7
BRAINERD       SUNNY     14   7  73 W5        30.00R WCI   6
HIBBING        SUNNY     17   5  59 VRB7G16   29.93R WCI   8
ALEXANDRIA     SUNNY     18  10  71 NW12      30.02R WCI   5
SAINT CLOUD    SUNNY     18   9  68 SW5       30.03R WCI  11
MINNEAPOLIS    PTSUNNY   20   8  60 SW8       30.07S WCI  10
$$

  *****  WEATHER ACROSS SOUTH DAKOTA  *****

CITY           SKY/WX    TMP DP  RH WIND       PRES   REMARKS
SIOUX FALLS    MOSUNNY   32  19  58 W8        30.09S WCI  25
BROOKINGS      NOT AVBL
WATERTOWN      SUNNY     23  13  65 NW12      30.06R WCI  12
HURON          SUNNY     26  16  65 CALM      30.12R
SISSETON         N/A     25  15  66 N15       30.08  WCI  13
ABERDEEN       SUNNY     25  15  66 NW9       30.12R WCI  15
MITCHELL       MOSUNNY   36  21  54 W14       30.11R
PIERRE         MOSUNNY   31  19  61 W6        30.13R
MOBRIDGE       SUNNY     29  18  63 N5        30.09R WCI  24
RAPID CITY     SUNNY     36  23  59 NW5       30.13R
$$

  *****  SOME WEATHER IN NEARBY STATES *****

CITY           SKY/WX    TMP DP  RH WIND       PRES   REMARKS
GLASGOW MT     MOSUNNY   29  22  75 SE3       30.02F
GREAT FALLS MT CLOUDY    41  19  41 SW12      30.13S
CHEYENNE WY    SUNNY     36  12  37 W16       30.24R
SCOTTSBLUFF NE SUNNY     36  23  59 NW8       30.25R
OMAHA NE       MOSUNNY   29  17  61 S5        30.22R WCI  24
DES MOINES IA  MOSUNNY   28  15  58 SW12      30.19F WCI  18
DAVENPORT IA   MOSUNNY   19   6  57 S21       30.28F WCI   3
CHICAGO IL     PTSUNNY   12   1  61 SW18G24   30.40F WCI  -6
EAU CLAIRE WI  CLOUDY    16   3  56 S15G21    30.09F WCI   1
LA CROSSE WI   SUNNY     15   3  59 S13       30.19F WCI   1
$$

  *****  SOME NATIONAL WEATHER *****

CITY           SKY/WX    TMP DP  RH WIND       PRES   REMARKS
LA GUARDIA NY  SUNNY     19   4  51 NE5       30.55S WCI  12
RALEIGH NC     MOSUNNY   27  10  49 NE14G21   30.53R WCI  16
ATLANTA GA     PTSUNNY   34  27  75 N3        30.42R
NEW ORLEANS LA PTSUNNY   36  23  59 N13G23    30.51R
OKLAHOMA CITY  SUNNY     36  20  52 SW14G21   30.49R
ALBUQUERQUE NM SUNNY     33  17  51 N3        30.41R
SALT LAKE CITY SUNNY     33  24  69 SE8       30.44R
LOS ANGELES CA CLEAR     51  27  39 CALM      30.15R
BOISE ID       CLEAR     31  19  61 SE3       30.43R
SEATTLE WA     CLOUDY    41  35  79 CALM      30.40R
$$

*** WEATHER ACROSS MANITOBA...SASKATCHEWAN AND ONTARIO ***
                ***ONTARIO***

CITY           SKY/WX    TMP DP  RH WIND       PRES   REMARKS
GERALDTON      LGT SNOW  12   5  73 SW17      29.77F VSB 1   WCI  -5
THUNDER BAY    PTSUNNY   10   0  61 CALM      29.89F
SIOUX LOOKOUT  MOSUNNY   12   3  67 NW13      29.82R WCI  -3
TORONTO        SUNNY     14   1  57 SW10      30.45F WCI   1
BIG TROUT LK   HVY SNOW   5   1  85 N8G18     29.67R VSB 1/4 WCI  -8
PICKLE LAKE    FLURRIES  12   1  62 NW13G25   29.70R WCI  -3
DRYDEN         SUNNY     12   3  67 NW12G18   29.85R WCI  -2
KENORA         MOSUNNY   12   3  67 W10       29.90R WCI  -1
$$
                *** MANITOBA***

CITY           SKY/WX    TMP DP  RH WIND       PRES   REMARKS
BRANDON        PTSUNNY    7   3  85 W12       29.99F WCI  -9
DAUPHIN        CLOUDY    23  14  68 W10       29.91  WCI  12
ISLAND LAKE    MOSUNNY    3  -4  72 W13       29.79R WCI -14
PILOT MOUND    NOT AVBL
THE PAS        FLURRIES  16  12  86 SE6       29.79F WCI   7
THOMPSON       PTSUNNY   -2  -8  78 VRB2      29.81S
WINNIPEG       SUNNY     10   3  72 W13       30.00R WCI  -5
LYNN LAKE      LGT SNOW   5   3  92 W3        29.76S
CHURCHILL      CRYSTALS -18 -24  76 NW10      29.80S WCI -39
GILLAM         SUNNY     -9 -15  77 N9        29.80R WCI -27
$$
                ***SASKATCHEWAN***

CITY           SKY/WX    TMP DP  RH WIND       PRES   REMARKS
ESTEVAN        CLOUDY    19  14  79 S7        30.02S WCI  10
KINDERSLEY     PTCLDY    28  25  86 W9        29.91S WCI  20
LLOYDMINSTER   LGT RAIN  37  34  87 W23G35    29.81S
PRINCE ALBERT  PTSUNNY   25  19  80 CALM      29.79S
REGINA         CLOUDY    14  12  92 SE9       29.94F WCI   2
YORKTON        CLOUDY    23  14  68 SW14      29.87F WCI  11
N. BATTLEFORD  LGT RAIN  36  30  80 W10       29.84S
LA RONGE       PTSUNNY   23  16  74 SW5       29.72S WCI  17
SASKATOON      FRZ DRZL  27  23  86 SW13      29.85F WCI  16
SWIFT CURRENT  CLOUDY    32  25  74 W18       29.93R WCI  20
$$
NOTE: THESE ARE AUTOMATED STATIONS WITH LIMITED QUALITY CONTROL
      "FAIR" INDICATES FEW OR NO CLOUDS BELOW 12,000 FEET WITH NO
      SIGNIFICANT WEATHER AND/OR OBSTRUCTIONS TO VISIBILITY.
      SKY/WX - SKY CONDITION AND SIGNIFICANT WEATHER.
      TMP - AIR TEMPERATURE.    DP   - DEWPOINT TEMPERATURE.
      RH  - RELATIVE HUMIDITY.  PRES - PRESSURE.
      HX  - HEAT INDEX.         WCI  - WIND CHILL INDEX.
$


USA.gov is the U.S. government's official web portal to all federal, state and local government web resources and services.